Location: STAR School
(35.3054°N, 111.2976°W)
Time: 14:33:25
(UTC-07:00)

Vanguard 1 - Visible Passes

Search period start: 22 October 2019 00:00
Search period end: 01 November 2019 00:00
Orbit: 653 x 3830 km, 34.2° (Epoch: 22 October)

Date Brightness Start Highest point End Pass type
(mag) Time Alt. Az. Time Alt. Az. Time Alt. Az.
22 Oct 13.9 01:49:57 17° SSE 01:49:57 17° SSE 01:53:36 10° SSE visible
22 Oct 13.9 04:02:41 12° SSW 04:02:41 12° SSW 04:06:41 10° SSW visible
22 Oct 10.9 18:36:02 10° WSW 18:42:39 70° SSE 18:51:56 18° E visible
22 Oct 11.4 20:55:26 10° W 21:04:37 84° SW 21:04:37 84° SW visible
22 Oct 13.3 23:15:57 10° W 23:17:18 15° W 23:17:18 15° W visible
23 Oct 14.0 02:09:49 16° S 02:09:49 16° S 02:13:14 10° SSE visible
23 Oct 10.9 18:56:51 10° WSW 19:03:43 79° SSE 19:11:28 25° E visible
23 Oct 11.6 21:16:25 10° W 21:24:09 67° WSW 21:24:09 67° WSW visible
24 Oct13.600:16:53SE00:16:53SE23:36:51Wvisible
24 Oct 14.0 02:29:35 14° S 02:29:35 14° S 02:32:12 10° S visible
24 Oct 10.9 19:17:43 10° W 19:24:52 84° S 19:31:01 34° E visible
24 Oct 12.0 21:37:26 10° W 21:43:42 51° W 21:43:42 51° W visible
25 Oct13.800:36:35SE00:36:35SE23:56:24Wvisible
25 Oct 14.1 02:49:16 11° S 02:49:16 11° S 02:50:01 10° S visible
25 Oct 11.0 19:38:39 10° W 19:46:05 85° S 19:50:35 45° E visible
25 Oct 12.4 21:58:27 10° W 22:03:16 37° W 22:03:16 37° W visible
26 Oct 11.0 19:59:35 10° W 20:07:19 83° S 20:10:10 58° ESE visible
26 Oct 12.7 22:19:32 10° W 22:22:52 26° W 22:22:52 26° W visible
27 Oct 10.5 18:01:15 10° WSW 18:06:55 78° S 18:17:06 10° E visible
27 Oct 11.1 20:20:32 10° W 20:28:33 79° S 20:29:48 71° SE visible
27 Oct 13.1 22:40:42 10° W 22:42:29 18° W 22:42:29 18° W visible
28 Oct 10.5 18:22:07 10° W 18:28:00 83° S 18:36:44 16° E visible
28 Oct 11.3 20:41:29 10° W 20:49:26 71° SSW 20:49:26 71° SSW visible
28 Oct 13.4 23:02:03 10° W 23:02:08 10° W 23:02:08 10° W visible
29 Oct 10.6 18:43:01 10° W 18:49:07 84° S 18:56:25 22° E visible
29 Oct 11.6 21:02:28 10° W 21:09:07 56° WSW 21:09:07 56° WSW visible
30 Oct 10.6 19:03:56 10° W 19:10:15 81° S 19:16:08 30° ESE visible
30 Oct 12.0 21:23:31 10° W 21:28:50 41° WSW 21:28:50 41° WSW visible
31 Oct 10.8 19:24:51 10° W 19:31:23 75° S 19:35:54 38° ESE visible
31 Oct 12.4 21:44:41 10° W 21:48:36 29° WSW 21:48:36 29° WSW visible
